[[{"header":{"parameterUnit":"m.s-1","parameterCategory":1,"la1":30.2991,"la2":30.254,"lo1":-89.0895,"lo2":-89.0444,"dy":0.0017,"dx":0.0017,"nx":28,"ny":28,"refTime":"2024-06-14T21:00:00:Z","depth":0,"parameterNumber":2,"parameterNumberName":"U-component_of_WINDS"},"data":[0,0,0,0,0,0,0,0,0,0,0,0,0,0,0,0,0,0,0,0,0,0,0,0,0,0,0,0,0,0,0,0,0,0,0,0,0,0,0,0,0,0,0,0,0,0,0,0,0,0,0,0,0,0,0,0,0,0,-2.0439,-2.0438,0,-2.0318,-2.0316,-2.0315,-2.0291,-2.0292,-2.0293,-2.0294,-2.0169,-2.0165,-2.016,0,0,0,0,0,0,0,0,0,0,0,0,0,-2.0652,-2.0648,-2.0439,-2.0438,-2.0436,-2.0318,-2.0316,-2.0314,-2.0291,-2.0292,-2.0293,-2.0295,-2.017,-2.0165,-2.016,0,0,0,0,0,0,0,0,0,0,0,0,0,-2.0548,-2.0647,-2.0439,-2.041,-2.0406,-2.0318,-2.0316,-2.0314,-2.0291,-2.0292,-2.0294,-2.0295,-2.0172,-2.0166,-2.0159,-2.0091,0,0,-2.014,-2.0137,0,0,0,0,0,0,0,0,-2.0554,-2.054,-2.0416,-2.0412,-2.0408,-2.0321,-2.0345,-2.0239,-2.0291,-2.0335,-2.0294,-2.0296,-2.0218,-2.0208,-2.0182,-2.0085,-2.008,-2.0139,-2.0135,-2.0133,-2.0131,0,0,0,0,0,0,0,-2.0561,-2.0545,-2.0391,-2.0414,-2.0409,-2.0404,-2.039,-2.0325,-2.027,-2.0331,-2.0329,-2.0315,-2.0216,-2.0188,-2.0179,-2.0078,-2.014,-2.0134,-2.013,-2.0127,-1.9923,-1.9921,0,0,0,0,0,0,-2.0573,-2.0551,-2.0395,-2.0387,-2.0486,-2.0399,-2.0384,-2.0347,-2.027,-2.026,-2.0314,-2.0314,-2.0198,-2.0186,-2.0174,-2.0091,-2.0133,-2.0127,-2.0123,-1.9924,-1.9922,-1.9921,0,0,0,0,0,0,-2.0578,-2.056,-2.04,-2.0469,-2.0448,-2.0393,-2.0353,-2.0344,-2.0316,-2.0258,-2.0248,-2.0295,-2.0199,-2.0183,-2.0113,-2.0087,-2.0124,-2.0118,-1.9926,-1.9924,-1.9922,-1.9924,0,0,0,0,0,0,-2.0584,-2.0562,-2.0535,-2.0468,-2.0444,-2.034,-2.0351,-2.0341,-2.0306,-2.0305,-2.0238,-2.0228,-2.0199,-2.0123,-2.0107,-2.0079,-2.0113,-1.9928,-1.9925,-1.9922,-1.9926,-1.9922,-1.9919,0,0,0,0,0,-2.0592,-2.0539,-2.0533,-2.0515,-2.041,-2.0338,-2.0324,-2.0293,-2.0304,-2.0276,-2.0239,-2.023,-2.0093,-2.0115,-2.0097,-2.0067,-1.993,-1.9926,-1.9923,-1.9928,-1.9923,-1.9919,0,0,0,0,0,0,-2.0602,-2.053,-2.0522,-2.0447,-2.0399,-2.0334,-2.0299,-2.0288,-2.0236,-2.0237,-2.02,-2.0185,-2.0117,-2.0085,-2.0112,-1.9999,-2.0012,-2.0004,-2.0022,-2.0017,-2.0013,-2.0022,-2.0108,0,0,0,0,0,-2.0596,-2.0544,-2.0484,-2.0423,-2.0399,-2.0354,-2.0321,-2.0301,-2.025,-2.0229,-2.0187,-2.0138,-2.0084,-2.0048,-1.9995,-1.9922,-1.9908,-1.9892,-1.9889,-1.9886,-1.988,-1.9841,-1.9834,-1.9909,-1.9909,-1.9909,0,0,-2.0582,-2.0536,-2.0505,-2.0424,-2.0384,-2.0332,-2.0336,-2.028,-2.0241,-2.0221,-2.0152,-2.0119,-2.0062,-1.9991,-1.9957,-1.9962,-1.9856,-1.9881,-1.9879,-1.9875,-1.9837,-1.983,-1.9823,-1.9906,-1.9907,-1.9907,0,0,-2.053,-2.0489,-2.0435,-2.0396,-2.0338,-2.0308,-2.0295,-2.0233,-2.0211,-2.0141,-2.0126,-2.0079,-1.9986,-1.9947,-1.9915,-1.9852,-1.9842,-1.9836,-1.9816,-1.9778,-1.9772,-1.9767,-1.9746,-1.9739,-1.983,-1.983,-1.983,0,-2.052,-2.044,-2.0409,-2.0354,-2.0319,-2.03,-2.0246,-2.0209,-2.0136,-2.0113,-2.012,-2.0005,-1.9964,-1.9885,-1.987,-1.9844,-1.9829,-1.9842,-1.9776,-1.977,-1.9765,-1.9744,-1.9736,-1.9829,-1.9829,-1.9829,-1.9829,0,-2.0431,-2.0377,-2.034,-2.0271,-2.0233,-2.0178,-2.0139,-2.0104,-2.0089,-2.0059,-1.999,-1.9942,-1.988,-1.9859,-1.9842,-1.9778,-1.9783,-1.9783,-1.9796,-1.9758,-1.9738,-1.973,-1.9829,-1.9829,-1.9829,-1.9829,0,0,-2.038,-2.0297,-2.0284,-2.0254,-2.0189,-2.0146,-2.0092,-2.0032,-2.0004,-1.9954,-1.9909,-1.9832,-1.9833,-1.9797,-1.9776,-1.9743,-1.9699,-1.9748,-1.9746,-1.9741,-1.9627,-1.9627,-1.9619,-1.9693,-1.9691,-1.969,-1.9632,0,-2.0321,-2.0223,-2.0195,-2.0114,-2.0064,-2.0047,-2.0,-1.9955,-1.9927,-1.9881,-1.985,-1.9797,-1.9801,-1.9779,-1.9746,-1.9711,-1.9675,-1.9715,-1.9651,-1.9649,-1.9666,-1.9608,-1.9607,-1.9555,-1.9624,-1.9623,-1.9622,0,-2.0237,-2.0189,-2.0103,-2.0047,-2.0025,-1.9983,-1.9928,-1.9884,-1.9834,-1.9816,-1.9777,-1.976,-1.9705,-1.9721,-1.9645,-1.9672,-1.9645,-1.9624,-1.9621,-1.9614,-1.9633,-1.96,-1.9538,-1.953,-1.9609,-1.961,-1.9611,0,-2.021,-2.0123,-2.0061,-2.0035,-1.9968,-1.994,-1.9911,-1.9862,-1.9829,-1.9781,-1.976,-1.9705,-1.9676,-1.9635,-1.9604,-1.9618,-1.9531,-1.9544,-1.9515,-1.9516,-1.9497,-1.9498,-1.943,-1.9479,-1.9479,-1.9479,-1.9479,0,-2.0147,-2.0095,-2.0048,-2.001,-1.9952,-1.9921,-1.9865,-1.9835,-1.9793,-1.975,-1.9731,-1.9691,-1.9653,-1.9608,-1.9583,-1.9525,-1.9511,-1.9496,-1.949,-1.9498,-1.95,-1.9479,-1.9482,-1.9477,-1.9477,-1.9478,-1.9478,0,-2.0106,-2.0072,-2.0004,-1.9947,-1.9932,-1.9892,-1.9844,-1.9807,-1.9779,-1.9724,-1.971,-1.9666,-1.9612,-1.9578,-1.9509,-1.9493,-1.943,-1.9424,-1.9446,-1.9444,-1.9417,-1.9421,-1.9333,-1.9321,-1.9377,-1.9377,-1.9376,0,-2.0068,-2.0028,-1.9968,-1.9938,-1.9909,-1.9861,-1.9828,-1.9796,-1.9763,-1.9705,-1.9676,-1.9621,-1.9576,-1.9491,-1.9453,-1.9402,-1.9396,-1.9369,-1.9387,-1.9397,-1.9397,-1.94,-1.9396,-1.9366,-1.9365,-1.9365,-1.9364,0,-2.0005,-1.9991,-1.9944,-1.9892,-1.9853,-1.981,-1.9768,-1.9744,-1.9706,-1.9669,-1.9615,-1.958,-1.9511,-1.9458,-1.9403,-1.9374,-1.9363,-1.9359,-1.935,-1.9357,-1.9372,-1.9365,-1.9439,-1.9361,-1.9361,-1.9361,-1.9362,-1.9362,-1.9965,-1.993,-1.9883,-1.9832,-1.9797,-1.9758,-1.9721,-1.969,-1.9644,-1.9586,-1.9571,-1.9514,-1.9469,-1.9394,-1.9364,-1.9321,-1.9324,-1.931,-1.9307,-1.9304,-1.9304,-1.9379,-1.931,-1.931,-1.931,-1.9311,-1.9311,0,-1.9901,-1.9871,-1.9825,-1.9767,-1.9727,-1.9722,-1.9675,-1.9642,-1.9593,-1.9551,-1.9508,-1.9447,-1.9396,-1.9356,-1.9304,-1.9277,-1.9271,-1.9264,-1.9266,-1.926,-1.9304,-1.9317,-1.927,-1.927,-1.927,-1.927,-1.927,-1.927,-1.9864,-1.9805,-1.9786,-1.971,-1.968,-1.9625,-1.9599,-1.9564,-1.9531,-1.9464,-1.9422,-1.9396,-1.9356,-1.9301,-1.9255,-1.9245,-1.9227,-1.9221,-1.921,-1.9252,-1.9256,-1.9261,-1.9273,-1.9218,-1.9218,-1.917,-1.917,-1.9169]},{"header":{"parameterUnit":"m.s-1","parameterCategory":1,"la1":30.2991,"la2":30.254,"lo1":-89.0895,"lo2":-89.0444,"dy":0.0017,"dx":0.0017,"nx":28,"ny":28,"refTime":"2024-06-14T21:00:00:Z","depth":0,"parameterNumber":3,"parameterNumberName":"V-component_of_WINDS"},"data":[0,0,0,0,0,0,0,0,0,0,0,0,0,0,0,0,0,0,0,0,0,0,0,0,0,0,0,0,0,0,0,0,0,0,0,0,0,0,0,0,0,0,0,0,0,0,0,0,0,0,0,0,0,0,0,0,0,0,1.8991,1.8991,0,1.8967,1.8967,1.8967,1.9015,1.9016,1.9018,1.902,1.8989,1.8987,1.8985,0,0,0,0,0,0,0,0,0,0,0,0,0,1.9073,1.9071,1.8991,1.8991,1.8991,1.8968,1.8967,1.8967,1.9015,1.9017,1.9018,1.902,1.899,1.8987,1.8985,0,0,0,0,0,0,0,0,0,0,0,0,0,1.9042,1.9071,1.8991,1.9012,1.9014,1.8968,1.8967,1.8967,1.9014,1.9017,1.9019,1.9021,1.8991,1.8988,1.8984,1.8916,0,0,1.8974,1.8972,0,0,0,0,0,0,0,0,1.9044,1.9039,1.9009,1.9011,1.9012,1.8997,1.8985,1.8949,1.9014,1.9014,1.902,1.9022,1.8989,1.8986,1.8976,1.8914,1.8913,1.8974,1.8971,1.897,1.8969,0,0,0,0,0,0,0,1.9046,1.904,1.8982,1.9009,1.9011,1.9021,1.9019,1.8978,1.8988,1.9014,1.9017,1.9014,1.8991,1.898,1.8976,1.8912,1.8974,1.8971,1.8968,1.8967,1.879,1.8787,0,0,0,0,0,0,1.9046,1.9042,1.8983,1.8981,1.9034,1.9017,1.9015,1.8999,1.8989,1.899,1.9012,1.9017,1.8984,1.898,1.8975,1.8892,1.897,1.8967,1.8965,1.8793,1.8789,1.8787,0,0,0,0,0,0,1.9048,1.904,1.8984,1.9012,1.9006,1.9013,1.8995,1.8997,1.8986,1.8988,1.8989,1.8999,1.8986,1.898,1.893,1.8891,1.8965,1.8962,1.8796,1.8792,1.8788,1.8726,0,0,0,0,0,0,1.905,1.9041,1.9016,1.9012,1.9004,1.894,1.8993,1.8995,1.8981,1.8986,1.8976,1.8977,1.8987,1.8935,1.8926,1.8888,1.8959,1.8799,1.8794,1.8789,1.8731,1.872,1.871,0,0,0,0,0,1.9053,1.8999,1.9014,1.9007,1.8974,1.8938,1.8933,1.8948,1.8978,1.8952,1.8953,1.8977,1.8898,1.8929,1.892,1.888,1.8802,1.8795,1.879,1.8736,1.8722,1.8711,0,0,0,0,0,0,1.8996,1.8998,1.9016,1.8959,1.8948,1.8946,1.8913,1.8934,1.8913,1.8919,1.8937,1.8934,1.8879,1.8876,1.891,1.8812,1.8854,1.8846,1.8816,1.8803,1.8793,1.8794,1.8957,0,0,0,0,0,1.8978,1.895,1.8953,1.8902,1.8896,1.8906,1.8891,1.8904,1.8892,1.8887,1.8884,1.887,1.8842,1.8823,1.8798,1.8732,1.8728,1.87,1.869,1.8681,1.8673,1.8635,1.8621,1.8767,1.8767,1.8767,0,0,1.8938,1.8936,1.8917,1.8891,1.8884,1.8853,1.8901,1.8867,1.8843,1.8881,1.8833,1.8831,1.8817,1.8758,1.8732,1.8752,1.8633,1.8674,1.8667,1.8663,1.8627,1.8614,1.8601,1.8763,1.8764,1.8764,0,0,1.8849,1.8846,1.8802,1.8795,1.8784,1.8791,1.8781,1.8775,1.8775,1.8728,1.8756,1.8728,1.868,1.8668,1.8655,1.8562,1.8582,1.8554,1.8498,1.8461,1.845,1.844,1.8403,1.839,1.8546,1.8546,1.8546,0,1.88,1.8756,1.8777,1.874,1.8727,1.8763,1.8717,1.8708,1.8689,1.8678,1.8703,1.8642,1.8635,1.8573,1.855,1.854,1.8526,1.8553,1.845,1.844,1.8431,1.8396,1.8383,1.8542,1.8543,1.8543,1.8543,0,1.8695,1.8664,1.863,1.8612,1.8595,1.8554,1.8567,1.8547,1.8562,1.8566,1.8516,1.8509,1.8482,1.8469,1.8483,1.8408,1.8421,1.8448,1.849,1.8413,1.8381,1.8368,1.8537,1.8538,1.8539,1.854,0,0,1.8567,1.8562,1.8549,1.854,1.8532,1.8507,1.8467,1.8442,1.8424,1.841,1.8374,1.8333,1.8358,1.8344,1.8357,1.8325,1.8248,1.8355,1.8355,1.8332,1.8161,1.8139,1.8123,1.8263,1.8261,1.8259,1.8161,0,1.8477,1.841,1.8427,1.8359,1.8329,1.8363,1.8328,1.8318,1.832,1.8294,1.8296,1.8265,1.8302,1.8293,1.8264,1.8263,1.8213,1.8271,1.8227,1.8225,1.8226,1.8107,1.8083,1.7991,1.8149,1.8147,1.8146,0,1.8362,1.8344,1.8273,1.8268,1.8256,1.8225,1.8203,1.8178,1.8166,1.817,1.8155,1.8174,1.8132,1.8177,1.8119,1.8158,1.8141,1.8138,1.8135,1.8129,1.8178,1.8094,1.7963,1.7948,1.8127,1.8128,1.813,0,1.8271,1.823,1.8182,1.8174,1.8168,1.8145,1.8141,1.8132,1.8115,1.8096,1.8085,1.806,1.8046,1.8025,1.8036,1.8069,1.7974,1.8021,1.7973,1.7973,1.7949,1.7949,1.781,1.7944,1.7944,1.7945,1.7945,0,1.8166,1.8121,1.8142,1.8111,1.8061,1.8082,1.803,1.803,1.8022,1.7991,1.8019,1.7989,1.8007,1.7978,1.7986,1.7934,1.7928,1.7928,1.793,1.7924,1.7923,1.791,1.7915,1.7941,1.7942,1.7942,1.7943,0,1.8055,1.8068,1.8017,1.8016,1.8015,1.7977,1.7975,1.7946,1.7952,1.7912,1.7904,1.7911,1.7878,1.7888,1.7852,1.7858,1.7791,1.7803,1.7795,1.7797,1.7747,1.775,1.7592,1.757,1.7721,1.772,1.7719,0,1.7986,1.7952,1.7947,1.7929,1.7924,1.7895,1.7878,1.7897,1.7879,1.7863,1.7835,1.7805,1.7781,1.7726,1.7727,1.7699,1.7708,1.7655,1.7704,1.7698,1.7703,1.7704,1.7699,1.7644,1.7642,1.7641,1.7639,0,1.786,1.7868,1.7844,1.7822,1.7802,1.7785,1.7771,1.7754,1.7772,1.7749,1.7717,1.7699,1.7662,1.7631,1.7605,1.7599,1.762,1.7625,1.7611,1.7602,1.7598,1.7596,1.7764,1.7627,1.7628,1.7629,1.763,1.763,1.7765,1.7735,1.7728,1.77,1.7691,1.7677,1.7649,1.7652,1.7626,1.7598,1.7612,1.7573,1.7561,1.7529,1.752,1.7488,1.7509,1.749,1.7485,1.7479,1.7471,1.7606,1.7484,1.7485,1.7485,1.7485,1.7486,0,1.7637,1.7634,1.7609,1.7588,1.7566,1.7592,1.7577,1.7555,1.7522,1.751,1.7487,1.7448,1.7418,1.7417,1.7388,1.7362,1.7371,1.7354,1.7354,1.7351,1.7457,1.7469,1.7347,1.7347,1.7347,1.7347,1.7347,1.7347,1.7568,1.7519,1.7526,1.7472,1.7469,1.7433,1.7422,1.7408,1.7398,1.7354,1.733,1.7331,1.7322,1.7293,1.7265,1.7266,1.7252,1.723,1.7233,1.7331,1.7344,1.7357,1.7369,1.7228,1.7227,1.713,1.7129,1.7129]}]]